Powrót do katalogu

BREEZE-M R/B

AktywnyHEO
NORAD 35874·ROCKET BODY·🇷🇺 Russia

Wystrzelony Sep 17, 2009 z Baikonur Cosmodrome

Loading…

Następne Przeloty (najbliższe 24 godziny)

TLE

Starzejące sięSource: Space-Track

Epoka: Sep 1, 2026, 14:49 UTC

1 35874U 09050B   26244.61739588 -.00000124  00000-0  00000+0 0  9993
2 35874  13.4851 351.0035 4802787 195.5318 207.0898  1.93076397118869

Śledź BREEZE-M R/B w czasie rzeczywistym z AllMySat

Download on the App Store